sat.trackr.live / text

‹ back to catalog

STARLINK-4098

NORAD 53153 · 2022-083X

PAYLOAD ACTIVE UNKNOWN

§ Identity

Operator
Country
US
Launch date
2022-07-17
Launch site
AFETR
Launch vehicle
Mass (kg)
RCS (m²)

Purposes: comms

External: N2YO · Heavens-Above · Gunter

§ Orbital elements

Epoch: 2026-09-19T15:23:01.764096Z

Period
93.85 min
Inclination
53.1610°
Eccentricity
0.0001144
Mean motion
15.34390918 rev/d
Perigee alt
461.9 km
Apogee alt
463.5 km
Semi-major
6,840.9 km
B*
-2.1542e-5
RAAN
7.4549°
Arg perigee
84.1407°
Mean anomaly
275.9726°
Rev number
23,071

§ Raw data

STARLINK-40981 53153U 22083X   26262.64099264 -.00001104  00000+0 -21542-4 0  99952 53153  53.1610   7.4549 0001144  84.1407 275.9726 15.34390918230712

JSON: /api/v1/satellites/53153 · /tle

For live sub-satellite position, see the globe view (requires WebGL).

§ Visibility from observer

Set your observer location to see the next 7 days of passes ≥ 10°. The values pass through the URL so the page stays shareable.

No JS? Fill the form by hand. The geolocation button needs JavaScript.